Location: Borz?cin
(51.1714°N, 19.6030°E)
Time: 22:27:33
(UTC+00:00)

Geosat FO - Pass Details

Date: 19 May 2025
Orbit: 387 x 491 km, 108.0° (Epoch: 16 June)

Event Time Altitude Azimuth Distance (km) Brightness Sun altitude
Exits shadow 22:58:54 55° 261° (W) 477 4.3 -18.7°
Drops below altitude 10° 23:01:41 10° 322° (NW) 1,430 7.6 -18.7°
Sets 23:03:39 0° 326° (NNW) 2,289 8.8 -18.6°
